Regional Weather Roundup
Issued by NWS

Home | Current Version | Previous Version | Graphics & Text | Print | Product List | Glossary Off
Versions: 1 2 3 4 5 6 7 8 9 10 11 12 13 14 15 16 17 18 19 20 21 22 23 24 25 26 27 28 29 30 31 32 33 34 35 36 37 38 39 40 41 42 43 44 45 46 47 48 49 50

000
ASUS43 KMPX 240310
RWRMN
WEATHER ROUNDUP FOR MINNESOTA
NATIONAL WEATHER SERVICE TWIN CITIES/CHANHASSEN MN
1000 PM CDT MON APR 23 2018


NOTE: "FAIR" INDICATES FEW OR NO CLOUDS BELOW 12,000 FEET WITH NO
SIGNIFICANT WEATHER AND/OR OBSTRUCTIONS TO VISIBILITY. N/A MEANS
CURRENT SKY AND/OR WEATHER CONDITIONS ARE NOT AVAILABLE.

MNZ060>063-068>070-240400-
   Twin Cities Metro

CITY           SKY/WX    TMP DP  RH WIND       PRES   REMARKS
TWIN CITIES    FAIR      60  40  47 W5        30.13R
ST PAUL        FAIR      55  39  54 CALM      30.13R
CRYSTAL        FAIR      53  38  56 N3        30.12R
BLAINE         FAIR      55  37  50 CALM      30.13S
LAKEVILLE      FAIR      46  39  76 W3        30.13S
EDEN PRAIRIE   FAIR      59  40  49 NW3       30.12R
SOUTH ST PAUL  FAIR      55  37  49 CALM      30.12S
LAKE ELMO      FAIR      46  39  76 CALM      30.13S
$$
MNZ001>005-007-008-013>017-022>024-027-028-240400-
   Northwest Minnesota

CITY           SKY/WX    TMP DP  RH WIND       PRES   REMARKS
BEMIDJI        FAIR      46  31  54 NW3       30.17R
HALLOCK        FAIR      50  36  57 NW8       30.21R
ROSEAU         FAIR      48  36  61 CALM      30.18R
WARROAD        FAIR      48  34  57 CALM      30.18R
THIEF RVR FALL FAIR      49  36  61 NW6       30.20R
CROOKSTON      FAIR      46  43  87 NW6       30.20R
FOSSTON        FAIR      46  36  66 NW6       30.20R
DETROIT LAKES  FAIR      52  36  54 N5        30.19R
MOORHEAD       MOCLDY    54  39  58 N9        30.19R
PARK RAPIDS    FAIR      50  32  50 NW10      30.15R
MAHNOMEN       FAIR      48  36  62 N6        30.18R
$$
MNZ006-009>011-018-025>026-240400-
   North Central Minnesota

CITY           SKY/WX    TMP DP  RH WIND       PRES   REMARKS
BAUDETTE       FAIR      47  30  51 NW8       30.16R
FLAG ISLAND    FAIR      43  28  56 NW3       30.17R
INTL FALLS     FAIR      44  29  55 N5        30.14R
WASKISH        FAIR      41  30  65 NW5       30.17R
BIG FORK       FAIR      45  27  49 CALM      30.15R
LONGVILLE      FAIR      45  32  61 CALM      30.14R HAZE
GRAND RAPIDS   FAIR      48  30  49 CALM      30.15R
CRANE LAKE     FAIR      34  25  69 CALM      30.16R
ORR            FAIR      45  27  49 CALM      30.12S
COOK           FAIR      46  28  49 CALM      30.14R
WALKER         FAIR      53  30  41 NW7       30.15R
$$
MNZ012-019>021-037-240400-
   Northeast Minnesota

CITY           SKY/WX    TMP DP  RH WIND       PRES   REMARKS
DULUTH         FAIR      54  36  50 W6        30.12R
ELY            FAIR      45  28  53 CALM      30.13R
HIBBING        FAIR      42  28  57 NW7       30.12R
EVELETH        FAIR      41  31  67 N3        30.14R
DULUTH HARBOR  FAIR      54  37  54 SW6       30.11R
TWO HARBORS    FAIR      46  36  66 NW6       30.09S
SILVER BAY     FAIR      43  34  70 CALM      30.09R
GRAND MARAIS     N/A     38  32  79 CALM      30.10R
G MARAIS ARPRT FAIR      37  27  65 N5        30.12S
$$
MNZ029>031-032-039>041-046>048-054>057-064-240400-
   West Central Minnesota

CITY           SKY/WX    TMP DP  RH WIND       PRES   REMARKS
FERGUS FALLS   CLOUDY    55  37  50 NE7       30.13R
WHEATON        CLOUDY    57  46  67 N5        30.17R
MORRIS         CLOUDY    57  43  58 CALM      30.14R
ALEXANDRIA     CLOUDY    58  40  51 W3        30.15R
ELBOW LAKE     FAIR      52  41  66 N7        30.16R
WADENA         FAIR      52  37  58 NW6       30.15R
GLENWOOD       FAIR      57  37  47 W5        30.15R
APPLETON       CLOUDY    54  43  66 CALM      30.14R
BENSON         PTCLDY    50  39  66 CALM      30.16R
ORTONVILLE     PTCLDY    54  43  66 CALM      30.14R
MADISON        CLOUDY    55  46  71 S3        30.14S
WILLMAR        FAIR      54  43  66 CALM      30.17R
$$
MNZ033>034-036-042>043-049>051-058-059-240400-
   Central Minnesota

CITY           SKY/WX    TMP DP  RH WIND       PRES   REMARKS
ST CLOUD       FAIR      48  38  68 CALM      30.13R
SAUK CENTRE    FAIR      49  38  66 CALM      30.14R
PAYNESVILLE    FAIR      50  40  69 W5        30.15R
AITKIN         CLOUDY    45  34  65 CALM      30.12R
PINE RIVER     FAIR      46  30  53 CALM      30.17R
BRAINERD       FAIR      50  34  54 N5        30.13R
STAPLES        FAIR      52  37  58 NW6       30.14R
LONG PRAIRIE   FAIR      46  41  81 CALM      30.15R
LITTLE FALLS   FAIR      46  32  57 CALM      30.14R
LITCHFIELD     FAIR      54  43  66 CALM      30.15R
BUFFALO        FAIR      52  41  64 CALM      30.14S
MAPLE LAKE     FAIR      48  43  81 CALM      30.15R
HUTCHINSON     FAIR      51  46  82 CALM      30.16R
$$
MNZ037-044-045-052-053-240400-
   East Central Minnesota

CITY           SKY/WX    TMP DP  RH WIND       PRES   REMARKS
PRINCETON      FAIR      46  37  71 CALM      30.14R
MORA           FAIR      43  37  81 CALM      30.15R
CAMBRIDGE      FAIR      48  36  61 CALM      30.13S
RUSH CITY      MOCLDY    48  38  68 CALM      30.13S
MOOSE LAKE     FAIR      46  36  66 CALM      30.11R
HINCKLEY       FAIR      45  37  76 CALM      30.13R
CLOQUET        FAIR      55  34  44 W5        30.12R
MCGREGOR       FAIR      48  36  61 CALM      30.13R
$$
MNZ071>073-080-081-089-090-097-098-240400-
   Southwest Minnesota

CITY           SKY/WX    TMP DP  RH WIND       PRES   REMARKS
MONTEVIDEO     CLEAR     55  37  50 CALM      30.15S
GRANITE FALLS  CLEAR     55  45  69 CALM      30.16R
CANBY          CLOUDY    51  42  71 CALM      30.16R
MARSHALL       PTCLDY    52  42  69 CALM      30.15R
REDWOOD FALLS  CLEAR     57  43  59 SW3       30.14R
OLIVIA         CLEAR     54  43  66 CALM      30.15R
PIPESTONE      CLEAR    N/A N/A N/A SE6       30.15R
WINDOM         CLEAR     52  34  50 CALM      30.16R
WORTHINGTON    CLEAR     53  40  61 SE5       30.16R
JACKSON        CLEAR     46  41  81 CALM      30.15S
TRACY          CLEAR     53  42  68 S5        30.15R
SLAYTON        PTCLDY    51  42  71 CALM      30.16S
$$
MNZ065>067-074>077-082>085-091>093-240400-
   South Central Minnesota

CITY           SKY/WX    TMP DP  RH WIND       PRES   REMARKS
MANKATO        FAIR      56  41  57 N3        30.14S
NEW ULM        CLEAR     57  41  54 CALM      30.14S
ST JAMES       CLEAR     54  45  71 W3        30.15S
FAIRMONT       CLEAR     51  40  65 NW3       30.15R
GLENCOE        FAIR      54  47  77 CALM      30.13S
OWATONNA       FAIR      50  43  76 CALM      30.13S
WASECA         FAIR      52  43  71 N3        30.14S
ALBERT LEA     FAIR      52  39  62 CALM      30.14R
$$
MNZ078>079-086>088-094>096-240400-
   Southeast Minnesota

CITY           SKY/WX    TMP DP  RH WIND       PRES   REMARKS
ROCHESTER      FAIR      58  33  39 N5        30.13S
RED WING       FAIR      48  34  57 W3        30.12R
STANTON        FAIR      49  42  76 CALM      30.12R
DODGE CENTER   FAIR      54  39  58 CALM      30.13S
WINONA         FAIR      54  37  54 CALM      30.10S
AUSTIN         FAIR      52  43  71 CALM      30.13S
PRESTON        FAIR      56  33  41 N5        30.13S
$$
ABBREVIATIONS USED IN REMARKS
   TC - TEMPERATURES IN CELSIUS
  WCI - WIND CHILL INDEX
   HX - HEAT INDEX
  VSB - VISIBILITY
$$



USA.gov is the U.S. government's official web portal to all federal, state and local government web resources and services.